Precipitable_Water
1.53 1.52 1.56 1.72 1.73 1.76 1.66 1.61 1.60 1.57 1.54 1.54 1.48 1.44 1.48 1.47 1.43 1.39 1.48 1.62 1.74 1.83 1.91 2.01 2.03 1.98 1.92 1.84 1.80 1.71 1.66 1.47 1.29 1.25 1.26 1.35 1.52 1.67 1.83 1.61 1.37 1.35 1.31
1.66 1.58 1.58 1.65 1.72 1.74 1.72 1.69 1.63 1.61 1.55 1.56 1.48 1.39 1.39 1.43 1.42 1.48 1.55 1.67 1.76 1.87 1.93 2.06 2.14 2.02 1.95 1.81 1.73 1.68 1.55 1.37 1.32 1.28 1.21 1.31 1.48 1.63 1.82 1.55 1.41 1.34 1.28
1.74 1.60 1.56 1.56 1.58 1.59 1.62 1.63 1.60 1.58 1.52 1.41 1.37 1.44 1.43 1.43 1.52 1.58 1.60 1.64 1.71 1.80 1.96 1.92 2.27 2.07 1.92 1.75 1.70 1.54 1.39 1.36 1.34 1.28 1.22 1.28 1.43 1.55 1.80 1.56 1.31 1.44 1.43
1.75 1.74 1.49 1.55 1.71 1.68 1.60 1.63 1.54 1.53 1.45 1.50 1.48 1.44 1.42 1.43 1.40 1.51 1.66 1.73 1.75 1.75 1.84 1.88 2.02 2.08 2.01 1.71 1.58 1.41 1.36 1.32 1.32 1.29 1.31 1.31 1.39 1.45 1.71 1.65 1.38 1.35 1.42
1.78 1.60 1.43 1.56 1.62 1.51 1.56 1.53 1.56 1.50 1.43 1.48 1.58 1.57 1.51 1.44 1.50 1.53 1.69 1.71 1.66 1.36 1.57 1.84 1.88 1.97 2.00 1.73 1.50 1.39 1.39 1.36 1.30 1.33 1.42 1.40 1.44 1.38 1.51 1.65 1.45 1.30 1.32
1.71 1.66 1.38 1.30 1.42 1.46 1.46 1.52 1.52 1.51 1.42 1.48 1.52 1.58 1.58 1.64 1.64 1.57 1.59 1.63 1.57 1.68 1.55 1.70 1.77 1.88 1.94 1.74 1.57 1.47 1.43 1.43 1.37 1.39 1.42 1.44 1.49 1.48 1.39 1.57 1.58 1.34 1.22
1.69 1.59 1.51 1.33 1.40 1.42 1.49 1.52 1.43 1.41 1.49 1.55 1.42 1.41 1.54 1.65 1.63 1.64 1.64 1.55 1.66 1.80 1.84 1.97 1.94 1.98 1.92 1.70 1.54 1.49 1.48 1.46 1.47 1.42 1.41 1.44 1.47 1.55 1.49 1.40 1.59 1.53 1.31
1.77 1.70 1.62 1.31 1.43 1.49 1.62 1.59 1.45 1.42 1.55 1.59 1.49 1.45 1.29 1.28 1.45 1.52 1.62 1.63 1.56 1.67 1.82 1.96 1.99 1.95 1.82 1.74 1.66 1.56 1.40 1.44 1.42 1.42 1.42 1.42 1.43 1.52 1.57 1.51 1.37 1.54 1.46
1.67 1.78 1.47 1.47 1.55 1.57 1.62 1.51 1.53 1.58 1.41 1.53 1.58 1.38 1.24 1.21 1.30 1.53 1.57 1.65 1.69 1.73 1.75 1.79 1.72 1.84 1.69 1.72 1.63 1.54 1.41 1.44 1.45 1.46 1.43 1.44 1.41 1.42 1.52 1.57 1.51 1.35 1.48
1.79 1.76 1.65 1.64 1.71 1.65 1.61 1.71 1.78 1.65 1.49 1.34 1.42 1.64 1.58 1.38 1.22 1.31 1.55 1.67 1.64 1.52 1.66 1.61 1.75 1.80 1.78 1.73 1.59 1.46 1.39 1.53 1.61 1.46 1.46 1.47 1.49 1.46 1.44 1.54 1.57 1.50 1.30
1.69 1.70 1.66 1.70 1.60 1.65 1.75 1.78 1.70 1.59 1.59 1.44 1.50 1.53 1.60 1.58 1.54 1.36 1.02 1.19 1.34 1.44 1.69 1.74 1.69 1.82 1.78 1.62 1.53 1.47 1.40 1.53 1.46 1.47 1.42 1.45 1.55 1.59 1.57 1.50 1.59 1.62 1.53
1.52 1.59 1.59 1.58 1.58 1.54 1.49 1.56 1.59 1.56 1.51 1.46 1.31 1.45 1.49 1.39 1.31 1.27 1.09 1.14 1.11 1.36 1.54 1.81 1.86 1.93 1.95 1.70 1.73 1.63 1.53 1.57 1.63 1.56 1.49 1.44 1.49 1.57 1.63 1.68 1.64 1.75 1.71
1.44 1.47 1.54 1.54 1.53 1.50 1.47 1.44 1.41 1.46 1.52 1.47 1.56 1.44 1.49 1.40 1.49 1.39 1.22 1.25 0.99 1.22 1.34 1.65 1.79 1.91 1.89 1.78 1.75 1.72 1.67 1.65 1.62 1.55 1.49 1.41 1.38 1.42 1.52 1.61 1.70 1.83 1.93
1.52 1.56 1.56 1.70 1.78 1.65 1.65 1.63 1.57 1.52 1.53 1.58 1.60 1.59 1.48 1.47 1.56 1.41 1.29 1.27 1.18 1.18 1.27 1.36 1.62 1.71 1.99 1.86 1.82 1.87 1.85 1.73 1.67 1.63 1.48 1.46 1.43 1.44 1.47 1.55 1.54 1.70 2.07
1.70 1.82 1.90 1.78 1.66 1.73 1.77 1.79 1.73 1.58 1.60 1.57 1.62 1.65 1.52 1.47 1.43 1.49 1.46 1.42 1.39 1.13 1.06 1.37 1.43 1.71 1.89 1.94 1.87 1.84 1.80 1.76 1.74 1.72 1.51 1.54 1.56 1.52 1.48 1.53 1.52 1.62 1.78
1.75 1.92 1.79 1.73 1.69 1.83 1.85 1.84 1.80 1.81 1.81 1.79 1.82 1.76 1.65 1.63 1.60 1.57 1.55 1.53 1.57 1.47 1.32 1.55 1.56 1.74 1.84 1.85 2.01 1.96 1.93 1.80 1.72 1.61 1.57 1.59 1.65 1.66 1.63 1.64 1.61 1.64 1.71
1.85 1.90 1.78 1.77 1.79 1.82 1.79 1.71 1.73 1.72 1.60 1.65 1.84 1.84 1.72 1.75 1.63 1.71 1.66 1.66 1.63 1.72 1.59 1.66 1.79 1.91 1.84 1.90 1.98 2.02 2.00 1.85 1.78 1.65 1.59 1.62 1.65 1.71 1.74 1.73 1.75 1.78 1.80
1.98 1.96 1.86 1.92 1.82 1.77 1.84 1.74 1.63 1.55 1.45 1.47 1.57 1.83 1.85 1.88 1.85 1.76 1.71 1.70 1.74 1.82 1.71 1.68 1.87 1.91 1.97 2.07 1.99 2.07 2.09 2.06 1.90 1.80 1.69 1.68 1.68 1.70 1.70 1.73 1.76 1.80 1.83
1.92 1.94 1.93 1.91 1.89 1.94 1.84 1.80 1.76 1.63 1.60 1.58 1.51 1.53 1.61 1.80 1.88 1.87 1.88 1.82 1.83 1.92 1.88 1.81 1.81 1.95 2.03 2.12 1.99 2.09 2.06 2.03 2.01 1.96 1.83 1.80 1.73 1.69 1.66 1.64 1.67 1.66 1.68
1.82 1.85 1.86 1.84 1.78 1.70 1.64 1.58 1.57 1.61 1.72 1.74 1.71 1.62 1.52 1.54 1.65 1.83 1.87 1.88 1.96 1.94 1.93 1.87 1.85 1.86 1.91 1.99 2.04 1.91 1.94 2.04 1.87 1.95 1.91 1.88 1.84 1.74 1.73 1.69 1.64 1.58 1.55
1.64 1.62 1.57 1.59 1.66 1.74 1.84 1.83 1.87 1.84 1.81 1.82 1.85 1.89 1.83 1.73 1.60 1.54 1.58 1.73 1.77 1.85 1.91 1.77 1.69 1.72 1.74 1.81 1.78 1.89 1.84 1.88 1.89 1.93 1.84 1.86 1.84 1.78 1.76 1.74 1.64 1.55 1.46
1.62 1.68 1.72 1.78 1.78 1.88 1.93 2.00 1.96 1.92 1.97 1.98 1.88 2.00 2.03 1.95 1.94 1.82 1.74 1.70 1.61 1.48 1.50 1.55 1.59 1.59 1.70 1.79 1.85 1.87 1.83 1.75 1.64 1.97 1.87 1.82 1.83 1.74 1.73 1.72 1.66 1.58 1.47
1.71 1.78 1.88 1.95 1.96 1.97 1.95 1.97 2.04 2.01 1.97 2.00 2.01 1.99 1.98 2.01 1.99 1.95 1.91 1.90 1.88 1.87 1.83 1.75 1.70 1.78 1.80 1.90 1.91 1.82 1.77 1.74 1.75 1.95 1.89 1.73 1.83 1.73 1.76 1.71 1.66 1.61 1.51
1.90 1.93 1.95 1.97 1.94 1.93 1.93 2.00 2.10 2.08 2.02 2.04 2.07 2.06 2.00 1.96 1.96 1.95 1.95 1.95 1.94 1.89 1.90 1.98 2.03 2.00 1.98 1.99 1.99 2.00 1.95 1.92 1.92 1.93 1.90 1.59 1.71 1.64 1.71 1.68 1.70 1.64 1.56
1.89 1.89 1.94 1.97 1.98 1.96 1.99 2.06 2.06 2.01 1.93 1.92 1.95 1.97 1.95 1.95 2.00 2.02 1.98 1.91 1.88 1.88 1.89 1.85 1.81 1.83 1.89 1.91 1.93 1.96 1.81 1.75 1.73 1.75 1.88 1.81 1.71 1.67 1.65 1.61 1.68 1.65 1.54
1.89 1.93 1.93 2.05 2.07 2.04 2.01 1.98 1.91 1.86 1.78 1.83 1.88 1.90 1.90 1.92 1.97 1.99 1.98 1.90 1.79 1.84 1.88 1.83 1.84 1.86 1.90 1.91 1.92 1.86 1.79 1.66 1.66 1.63 1.78 1.75 1.73 1.63 1.52 1.57 1.52 1.56 1.56
Wind_Speed
12 12 12 12 11 10 9 9 9 7 7 5 5 5 4 4 3 3 3 3 4 6 7 9 11 12 13 13 12 12 14 14 14 15 15 15 16 18 17 15 11 3 4
12 12 12 11 10 9 9 9 8 7 6 6 5 4 4 3 1 2 2 5 6 8 8 8 9 11 12 13 11 12 13 13 14 15 16 16 17 19 19 18 15 10 7
12 12 11 10 9 9 10 8 7 6 6 5 4 3 3 1 1 2 3 5 6 8 10 11 10 10 12 12 11 13 12 13 14 15 16 17 18 20 21 20 17 17 15
12 10 11 10 9 9 8 7 6 5 5 5 3 3 2 2 2 3 5 6 8 9 11 13 8 9 11 11 12 12 12 13 14 15 17 17 19 20 22 22 21 20 18
11 9 9 9 9 9 9 7 6 5 3 3 1 1 1 2 3 5 8 9 11 15 12 8 8 8 9 11 11 12 12 13 14 15 16 18 19 20 22 22 21 21 20
10 8 10 7 10 11 9 6 5 3 2 1 2 1 1 3 5 8 10 11 11 10 5 5 7 9 8 9 10 10 11 13 13 14 15 17 18 19 20 21 21 20 19
9 9 6 9 13 10 8 7 6 3 2 3 3 4 6 8 9 11 12 10 7 6 6 6 7 8 8 8 8 9 10 11 12 13 14 15 17 18 19 19 20 19 18
8 7 6 11 13 10 7 7 7 6 5 4 5 6 7 9 7 7 8 9 3 3 7 6 7 8 8 6 7 8 9 11 11 12 13 13 14 16 17 18 17 18 17
9 7 11 10 10 9 6 6 5 5 4 4 5 5 3 3 4 8 6 7 5 3 6 6 7 7 10 9 8 8 8 10 10 10 11 12 12 13 14 15 15 15 15
9 8 9 8 9 8 6 4 4 3 4 4 4 2 2 5 4 3 6 7 6 4 5 6 6 6 9 7 9 8 8 9 10 9 10 10 10 11 11 11 12 13 12
9 9 9 8 7 7 5 3 3 3 3 3 2 2 3 2 1 2 5 5 6 4 4 6 4 5 8 9 8 8 8 8 9 9 9 9 9 9 9 9 9 10 10
9 9 8 8 6 6 5 4 3 3 3 3 3 2 2 2 3 3 4 4 4 4 4 6 3 4 7 7 8 8 7 7 8 8 8 8 8 8 8 6 6 7 7
9 9 8 7 5 4 4 4 3 3 2 2 2 2 3 3 3 3 3 4 4 4 4 4 2 3 5 6 6 7 6 7 7 7 7 7 7 7 6 5 3 3 4
9 8 9 8 6 5 4 4 4 4 3 3 3 3 3 4 4 4 4 5 4 5 4 3 3 4 4 5 5 6 5 7 7 7 7 7 6 6 6 4 2 1 1
8 9 8 8 6 5 5 4 4 4 4 4 4 4 5 5 5 5 6 6 4 6 5 4 4 4 4 5 5 6 6 7 6 7 7 6 6 6 6 5 2 1 1
9 8 8 8 8 6 6 5 5 5 5 5 6 7 7 7 7 7 8 7 6 5 5 5 5 5 6 6 6 6 7 7 6 7 7 6 6 6 6 5 3 3 3
11 10 8 9 8 7 7 6 5 5 6 7 7 9 8 8 8 9 8 8 8 7 8 8 8 8 8 9 8 8 8 7 7 8 7 7 6 6 5 5 4 4 5
13 11 10 9 9 8 8 7 7 7 7 7 8 8 9 10 9 9 9 9 10 10 10 10 11 11 10 11 10 9 9 9 10 9 8 8 8 7 7 7 7 7 7
14 13 12 11 11 10 9 9 10 9 10 10 10 10 10 11 11 11 11 12 12 12 12 12 13 12 12 12 12 12 12 12 11 13 11 10 9 9 8 8 9 9 10
16 15 14 13 13 12 12 12 12 12 12 11 11 11 12 13 13 14 14 14 14 14 14 14 14 14 14 14 13 13 14 13 12 12 12 12 11 11 11 11 11 12 12
18 16 15 14 14 14 13 13 13 14 14 14 15 14 14 15 16 17 17 17 17 17 16 16 16 16 16 16 17 17 17 16 16 16 16 15 14 14 14 15 15 15 15
18 17 17 16 16 16 15 16 16 16 17 17 17 17 17 17 18 17 18 18 19 19 19 19 19 19 19 19 18 18 17 18 18 18 18 18 18 18 18 18 18 18 19
19 18 18 18 18 18 18 19 19 19 19 19 19 19 20 20 20 20 19 19 19 19 20 20 20 20 20 20 21 22 22 22 21 21 20 20 21 21 22 22 22 22 22
20 20 20 20 20 21 21 22 22 21 21 21 21 22 23 23 22 22 21 20 20 20 20 21 20 20 21 22 23 22 22 21 21 22 23 24 26 26 26 25 26 25 24
21 21 22 22 22 22 22 21 21 21 22 23 24 24 23 22 23 23 23 23 22 22 21 21 21 22 22 22 22 23 24 23 24 25 26 27 27 28 28 29 29 30 29
21 21 21 21 20 21 22 22 22 22 20 20 20 19 19 20 20 21 22 22 22 22 22 23 22 22 22 22 22 21 22 24 25 26 26 27 28 30 31 33 32 31 32
Wind_Direction
148 154 154 151 147 149 150 146 143 136 133 119 119 132 145 123 106 82 74 38 10 4 5 7 7 5 4 3 5 12 13 15 18 19 17 14 10 6 2 3 6 359 170
149 150 153 152 149 148 144 147 151 145 144 135 112 110 117 138 114 46 3 351 347 342 343 351 2 7 5 4 13 14 15 22 24 24 22 20 18 17 19 26 39 64 118
152 155 158 159 156 149 143 142 147 141 128 139 121 111 84 79 24 356 348 346 346 353 350 346 351 7 10 15 19 18 24 27 29 28 27 27 28 28 31 38 52 68 84
156 158 163 164 164 161 162 153 145 142 140 123 114 105 86 62 26 336 322 323 322 321 332 346 348 10 17 23 22 27 30 31 32 34 34 35 36 38 41 47 59 69 80
158 161 169 172 174 173 165 156 146 143 135 162 142 142 5 336 346 337 320 312 315 325 305 324 9 12 25 28 27 31 35 35 36 40 41 41 42 45 48 53 62 71 79
167 159 163 180 179 176 175 176 160 158 157 201 223 243 315 328 327 325 327 327 329 351 8 14 7 10 21 24 26 33 37 38 41 45 46 46 46 49 53 57 63 71 79
161 176 173 179 173 180 191 202 199 200 228 257 280 279 281 308 307 322 325 326 325 8 19 343 353 14 27 26 33 37 38 39 43 45 47 48 49 51 55 59 64 69 77
172 171 201 173 176 182 201 213 232 241 248 286 291 292 295 304 321 336 336 346 335 349 7 4 18 26 26 34 40 38 39 40 43 46 47 48 49 52 55 60 65 69 75
161 140 142 164 180 188 189 196 207 225 251 280 310 298 297 321 343 356 18 25 42 28 17 18 18 38 42 52 37 37 41 43 44 46 46 48 49 52 55 59 63 69 74
163 155 154 153 164 177 192 189 197 231 266 280 306 4 299 305 282 336 11 12 28 28 27 23 30 44 38 43 37 43 45 48 45 47 45 45 47 49 52 57 62 67 72
174 169 170 170 163 168 177 203 235 253 270 277 267 283 332 31 351 342 340 2 8 7 6 359 24 51 42 40 46 42 43 45 42 41 40 39 40 42 45 53 62 67 70
176 176 175 179 183 191 205 221 238 251 263 265 262 269 259 302 322 333 334 346 347 4 1 18 53 46 30 41 37 34 38 35 35 33 30 30 29 29 34 42 60 68 68
183 185 186 188 190 200 209 219 233 244 251 254 256 265 266 278 298 320 338 338 355 352 357 15 33 22 10 10 23 22 30 20 16 18 18 18 15 15 15 20 42 64 63
191 191 193 194 203 206 214 222 232 244 251 256 262 265 274 283 283 303 327 337 335 343 338 335 324 330 351 10 359 5 5 0 0 4 5 7 8 9 6 359 359 45 29
193 195 196 201 213 218 225 230 242 249 256 258 262 277 280 292 286 288 305 322 320 321 315 316 312 311 319 334 332 343 340 340 345 350 354 354 356 358 359 356 337 293 336
206 203 219 222 222 226 232 237 238 253 258 268 271 268 271 280 286 286 287 292 305 306 302 309 312 304 308 315 310 318 323 327 335 341 343 344 344 346 350 354 337 304 297
216 219 221 216 219 229 235 236 245 255 269 276 281 265 269 278 283 279 285 286 282 287 292 296 296 300 301 298 294 298 305 312 316 323 327 329 330 332 332 331 324 311 302
215 218 221 221 226 230 237 240 250 263 273 279 284 276 272 277 278 281 282 282 279 282 285 285 290 293 292 291 287 287 290 301 302 302 307 311 309 309 312 312 307 302 298
223 227 228 232 235 241 245 249 256 265 271 275 278 277 278 277 277 279 281 281 282 283 283 285 286 285 292 288 283 280 285 294 290 282 288 296 298 297 298 301 303 301 299
227 230 233 237 242 247 252 256 260 266 271 273 277 276 279 281 279 280 280 281 281 282 281 281 283 284 288 287 281 280 282 280 281 290 280 282 285 289 293 296 297 297 298
231 233 237 241 244 248 254 259 264 269 269 272 274 275 281 283 281 280 280 280 281 280 278 280 281 282 283 282 279 280 278 278 284 276 281 278 279 283 288 292 293 293 295
230 235 239 244 250 254 260 262 268 273 273 272 271 274 281 282 284 281 280 280 279 278 278 278 279 280 281 280 280 277 277 280 283 276 274 274 276 278 282 286 288 289 292
233 238 244 249 255 260 265 268 270 273 273 271 271 275 278 282 280 278 283 281 280 279 278 278 276 277 279 279 279 278 276 278 278 277 272 274 273 276 281 284 285 287 287
238 245 250 255 260 264 267 270 271 273 272 272 272 274 280 279 276 274 279 282 280 279 280 279 278 278 280 280 278 278 277 277 276 277 274 275 274 275 276 279 282 282 285
243 250 255 258 263 266 268 269 268 271 273 273 274 275 276 277 275 275 275 277 278 280 280 279 277 280 282 285 283 277 276 277 276 278 278 278 275 275 274 277 278 279 281
248 252 256 260 264 266 268 269 271 271 272 274 273 275 278 278 278 278 279 278 278 279 277 278 278 279 281 283 283 282 280 281 279 278 282 279 280 277 277 278 277 276 279